SCP
0 0 0 1 1 1 1 1 1 1 1 1 0 0 0 0 0 0 0 0 0 0 0 0 0 0 0 0 0 0 0 0 0 0 0 0 0 0 0 0 0 0 0
0 0 1 1 1 1 1 1 1 1 1 1 1 0 0 0 0 0 0 0 0 0 0 0 0 0 0 0 0 0 0 0 0 0 0 0 0 0 0 0 0 0 0
0 1 1 1 1 1 1 1 1 1 1 1 1 0 0 0 0 0 0 0 0 0 0 0 0 0 0 0 0 0 0 0 0 0 0 0 0 0 0 0 0 0 0
0 0 1 1 1 1 1 1 1 1 1 1 1 1 0 0 0 0 0 1 1 0 0 0 0 0 0 0 0 0 1 1 0 0 0 0 0 0 0 0 0 0 0
0 0 1 1 1 1 1 1 1 1 1 1 1 1 0 0 0 0 1 1 1 1 1 0 0 0 0 0 0 0 1 1 1 0 0 0 0 0 0 0 0 0 0
0 0 1 1 1 1 1 1 1 1 1 1 1 1 1 0 0 0 1 1 1 1 1 1 1 1 0 0 0 0 1 1 1 0 0 0 0 0 0 0 0 0 0
0 1 1 1 1 1 1 1 2 2 1 1 1 1 1 0 0 0 1 1 1 1 1 1 1 1 1 1 1 1 1 1 1 1 0 0 0 0 0 0 0 0 0
0 1 1 1 1 1 1 1 2 2 1 1 1 1 1 1 0 1 1 1 1 1 1 1 1 1 1 1 1 1 1 1 1 1 1 0 0 0 0 0 0 0 0
0 1 1 1 1 1 1 1 2 2 1 1 1 1 1 1 1 1 1 1 1 1 1 1 1 1 1 1 1 1 1 1 1 1 1 1 0 0 0 0 0 0 0
0 1 1 1 1 1 1 1 2 2 1 1 1 1 1 1 1 1 1 1 1 1 1 1 1 1 1 1 1 1 1 1 1 1 1 1 0 0 0 0 0 0 0
1 1 1 1 1 1 1 1 1 2 1 1 1 1 1 1 1 1 1 1 1 1 1 1 1 1 1 1 1 1 1 1 1 1 1 1 0 0 0 0 0 0 0
1 1 1 1 1 1 1 1 1 1 1 1 1 1 2 2 2 2 2 2 2 2 1 1 1 1 1 1 1 1 1 1 1 1 1 1 1 1 1 0 0 0 0
1 1 2 2 2 2 2 2 2 2 2 2 2 2 2 2 2 2 2 2 2 2 2 2 2 1 1 1 1 1 1 1 1 1 1 1 1 1 1 1 0 0 0
1 2 2 2 2 2 2 2 2 2 2 2 2 2 2 2 2 2 2 2 2 2 2 2 2 2 2 1 1 1 1 1 1 1 1 1 1 1 1 1 1 0 0
2 2 3 3 3 3 3 3 2 2 2 3 3 3 3 3 2 2 3 3 2 2 2 2 2 2 2 1 1 1 1 1 1 1 1 1 1 1 1 0 0 0 0
3 3 3 3 4 3 3 3 3 3 3 3 3 3 3 3 3 3 3 3 3 2 2 2 2 2 1 1 1 1 1 1 1 1 1 1 1 1 0 0 0 0 0
3 3 4 4 4 3 3 4 3 3 3 3 3 3 3 3 3 3 3 3 3 3 3 3 2 2 1 1 1 1 1 1 1 1 1 1 1 1 1 0 0 0 0
3 3 3 3 3 3 3 3 3 3 4 4 3 3 3 3 3 3 3 3 3 3 3 3 2 2 1 1 0 0 1 1 1 1 1 1 1 1 1 1 1 0 0
3 3 3 3 3 3 3 3 3 3 3 4 3 3 3 4 4 3 3 3 3 3 3 2 2 2 1 1 0 0 1 1 1 1 1 1 1 1 1 1 1 1 1
3 3 3 3 3 3 3 3 3 3 3 3 3 3 4 4 4 4 3 3 3 3 3 2 2 2 1 1 0 0 0 1 1 1 1 1 1 0 0 0 1 1 1
3 3 3 3 3 3 3 3 4 3 3 3 3 3 3 3 3 3 4 3 3 3 3 2 2 2 1 1 0 0 0 1 1 1 1 0 0 0 0 0 0 0 0
3 3 3 3 3 3 3 4 4 3 3 3 3 3 3 3 3 3 3 3 3 3 2 2 2 2 1 1 0 0 0 0 1 1 1 0 0 0 0 0 0 0 0
2 2 2 3 3 3 3 3 3 3 3 3 3 3 3 3 3 3 3 3 3 2 2 2 2 2 2 1 0 0 0 0 0 0 0 0 0 0 0 0 0 0 0
2 2 2 3 3 3 3 3 3 3 3 3 3 3 3 3 3 3 2 2 2 2 2 2 2 2 2 1 1 0 0 0 0 0 0 0 0 0 0 0 0 0 0
3 3 3 3 3 3 3 3 3 3 3 3 3 2 2 2 2 2 2 1 1 1 1 1 2 2 1 1 1 0 0 0 0 0 0 0 0 0 0 0 0 0 0
3 3 3 3 3 3 3 3 3 3 3 3 2 2 2 2 2 1 1 1 1 1 1 1 1 1 1 1 1 0 0 0 0 0 0 0 0 0 0 0 0 0 0
Wind_Speed
12 11 11 11 11 9 8 6 5 5 3 3 3 2 2 1 2 2 2 2 1 1 1 0 2 1 1 1 1 1 1 1 1 0 1 0 1 2 2 2 1 2 1
12 12 11 11 11 10 9 7 6 6 5 3 2 2 2 2 2 2 3 2 1 1 1 1 1 1 1 1 1 1 1 1 1 1 1 0 0 0 1 2 2 2 2
14 13 13 12 12 11 10 9 7 6 6 5 3 2 2 1 1 2 3 2 2 2 0 1 0 0 1 1 1 1 1 1 1 1 1 1 1 1 0 1 2 2 1
14 14 14 13 12 12 11 9 8 7 6 5 4 4 3 2 2 2 3 3 2 2 2 1 1 0 1 1 1 1 1 1 1 1 1 2 1 1 1 1 1 2 1
14 14 14 13 13 13 12 10 9 7 7 5 4 4 3 2 2 2 3 3 2 2 2 2 1 1 0 1 1 1 0 1 1 1 1 1 1 2 2 1 1 1 1
14 14 13 13 12 13 12 12 10 8 7 7 6 5 4 2 2 2 3 3 2 3 3 2 2 1 0 0 0 0 0 1 1 2 2 1 1 1 1 1 2 2 1
13 13 14 14 12 13 13 12 12 10 9 8 6 6 5 4 4 3 3 3 2 3 3 3 2 2 1 1 1 1 1 1 1 2 2 2 2 1 1 1 1 1 1
12 12 13 13 12 12 12 12 12 10 9 8 7 6 6 4 3 4 3 3 2 2 3 3 3 2 2 2 1 1 2 1 2 2 1 2 2 1 1 1 1 1 1
12 13 13 13 13 12 10 10 11 9 9 8 7 6 5 5 4 4 4 3 2 2 3 4 3 3 2 1 1 1 2 1 1 2 1 2 1 1 1 1 2 2 1
11 12 13 13 12 12 11 10 11 10 8 8 7 7 6 5 4 2 3 3 2 1 2 3 3 3 3 3 2 2 2 2 2 2 1 1 2 1 1 1 1 1 2
11 11 12 12 12 12 12 11 10 10 9 8 6 5 6 6 5 4 4 3 3 2 3 3 3 3 4 3 3 3 3 3 3 2 2 1 1 1 1 1 1 1 1
9 9 11 10 10 11 12 11 10 10 9 8 7 6 5 5 5 5 4 4 4 4 4 4 3 4 4 3 4 4 3 3 3 2 1 1 1 1 1 1 1 0 2
8 9 10 10 9 9 8 10 10 10 9 8 8 7 6 6 5 5 4 4 4 4 4 4 4 3 3 3 3 3 3 2 2 2 1 1 1 1 1 1 1 1 1
7 7 7 8 8 7 7 8 8 9 9 8 8 7 7 6 6 5 4 4 4 4 3 3 3 3 3 3 3 3 3 3 2 1 1 1 1 2 2 2 1 1 1
6 6 7 6 6 7 7 7 7 6 7 7 8 7 6 5 5 4 4 4 4 5 3 3 3 3 3 3 2 3 3 2 2 2 2 2 1 1 1 1 1 1 2
6 5 6 6 5 5 6 6 6 6 5 6 6 5 6 6 5 4 4 4 4 4 4 4 3 4 3 2 3 2 2 2 2 2 2 3 4 4 4 3 2 2 3
6 5 5 5 4 4 4 5 5 5 5 5 5 5 5 5 4 4 4 4 4 3 3 3 3 3 3 4 4 3 2 2 2 2 2 3 2 4 3 4 5 4 5
6 6 5 5 4 3 3 3 5 5 5 5 4 4 5 5 4 4 5 4 4 4 4 3 3 3 3 5 5 4 3 3 2 3 3 3 1 2 2 3 3 3 3
5 5 4 5 4 4 3 3 3 4 4 4 4 4 4 4 4 4 4 4 3 3 4 3 3 3 3 5 5 4 3 3 3 3 3 3 2 2 3 3 3 3 3
5 4 4 4 4 3 3 3 3 3 3 3 3 3 3 3 4 4 3 3 3 4 3 3 3 3 3 5 5 5 3 3 3 3 2 2 2 3 3 3 3 3 3
5 5 5 4 4 4 2 3 3 2 1 1 2 2 2 2 3 3 2 3 3 3 3 3 3 4 4 6 6 6 3 3 3 3 3 2 3 4 5 4 3 4 2
4 4 4 3 3 3 3 3 3 2 1 1 1 1 1 2 2 2 2 2 3 4 4 3 3 3 3 4 5 7 6 4 3 2 2 2 6 6 6 5 4 4 3
3 3 3 3 3 3 2 3 2 2 1 1 1 1 1 1 1 2 2 2 2 3 3 3 3 2 2 3 5 7 6 6 3 2 2 2 5 6 5 7 7 5 4
3 3 3 2 2 2 2 2 2 2 1 1 1 1 2 2 1 1 1 1 1 2 2 2 2 2 2 2 3 3 4 5 4 4 3 3 5 4 4 4 4 5 4
2 2 2 2 2 2 2 2 2 1 1 0 1 1 2 2 1 1 0 1 0 2 3 2 2 3 3 3 4 3 3 3 3 3 2 2 2 4 4 4 4 4 4
2 2 2 2 1 1 2 2 1 1 0 1 1 2 1 1 2 2 1 3 0 1 2 3 3 2 2 3 3 3 3 4 4 4 4 4 4 5 4 4 4 4 4
Wind_Direction
173 167 166 160 155 149 150 154 153 148 156 158 159 160 153 172 166 164 138 140 167 147 166 77 139 202 145 146 171 164 201 205 178 107 48 345 156 162 161 151 131 120 137
170 167 170 167 162 156 156 156 164 159 166 163 162 170 167 176 163 145 134 148 156 171 159 163 207 161 159 187 183 153 223 235 174 155 168 225 162 296 152 142 149 148 139
174 172 175 174 168 162 164 170 169 164 171 169 173 181 156 190 155 149 142 151 162 161 103 127 182 312 235 156 193 211 228 234 236 207 190 205 201 159 160 166 139 131 121
173 175 177 177 172 166 168 164 164 166 170 175 182 190 175 181 181 161 146 157 173 166 160 148 160 87 337 97 207 130 270 256 264 248 224 225 187 187 174 188 146 148 149
174 174 174 173 174 170 168 165 164 167 168 181 186 189 196 193 182 157 144 159 167 168 154 152 138 119 340 61 42 31 341 290 304 304 288 258 226 201 192 195 179 175 164
170 170 169 167 173 171 169 166 164 168 172 180 187 190 205 201 202 179 165 179 172 167 172 164 141 139 168 120 77 303 263 338 331 314 312 305 281 236 206 202 180 164 159
167 168 167 168 173 173 171 167 163 170 175 182 189 189 199 207 215 211 192 195 186 165 169 169 148 162 199 188 188 203 239 267 285 279 291 299 284 277 215 184 182 146 141
163 164 165 167 173 173 170 165 163 169 177 184 187 190 193 207 215 212 216 200 188 168 159 162 161 173 207 222 201 221 226 212 265 271 282 297 292 301 240 199 166 176 151
166 164 164 166 168 169 167 165 159 168 179 183 180 189 188 208 221 200 203 209 192 183 160 166 174 180 194 231 247 227 247 231 255 278 285 284 289 280 259 212 179 182 187
168 167 163 166 167 165 161 166 160 170 178 182 186 186 189 201 217 211 196 192 195 200 175 178 182 184 184 193 226 241 233 215 220 229 234 279 300 313 299 230 216 195 174
171 168 160 162 160 164 163 165 163 168 176 183 184 193 181 190 196 199 198 191 194 198 199 199 196 195 195 196 210 236 221 220 228 239 220 236 275 313 309 288 231 179 145
158 155 155 153 160 163 167 166 166 172 177 179 177 187 183 185 192 197 197 195 200 200 201 203 207 211 202 201 208 234 227 223 231 233 224 240 260 264 283 295 288 185 143
148 150 149 150 157 162 164 163 169 175 177 176 178 184 186 188 195 199 197 197 199 201 203 205 208 217 215 207 213 219 224 225 236 240 228 228 247 250 258 256 248 200 140
132 137 136 144 152 159 160 163 172 174 176 175 180 182 185 188 191 193 192 194 197 203 203 207 210 213 217 215 220 216 219 220 222 222 218 239 241 236 238 228 206 174 140
124 127 131 138 150 152 155 162 166 169 172 172 175 177 177 180 183 185 194 192 196 206 203 208 212 217 215 219 218 232 219 219 221 214 206 208 192 185 176 214 175 167 163
125 119 117 132 136 142 151 154 162 163 163 169 172 167 171 177 181 180 191 190 191 202 205 210 212 218 222 177 170 206 241 222 227 225 213 197 196 176 164 162 159 162 184
123 114 114 116 128 145 150 154 161 165 165 164 166 165 174 178 180 183 188 195 194 202 213 212 205 207 191 166 170 191 241 226 229 238 235 244 207 171 184 190 189 189 197
129 125 132 130 135 135 133 149 158 150 152 158 167 171 178 184 183 188 193 198 197 202 209 212 201 205 188 173 181 200 228 235 226 226 230 228 198 206 193 203 193 195 199
121 123 133 133 135 140 122 114 134 145 153 165 178 181 182 185 188 196 201 196 197 205 209 211 206 202 177 181 186 189 219 228 236 233 231 226 198 187 177 197 204 210 217
114 110 113 111 107 100 121 126 138 141 154 164 173 170 181 197 199 195 202 200 200 209 206 207 211 199 176 182 188 194 218 229 232 229 223 211 196 166 178 204 210 218 229
109 106 100 97 93 85 89 111 112 121 111 120 170 177 189 203 200 182 193 198 205 208 212 211 213 200 183 179 192 197 217 234 239 229 214 188 176 178 195 214 225 227 234
91 105 98 92 91 95 105 109 106 100 93 94 159 164 176 221 186 167 196 206 209 212 211 207 215 190 176 175 198 202 216 244 263 260 232 187 184 197 209 220 230 232 230
111 101 100 97 90 87 101 119 111 104 106 113 146 162 176 210 200 191 208 215 214 220 219 220 219 202 184 177 193 199 221 241 251 281 301 236 200 204 216 226 225 220 224
118 114 113 109 92 77 74 100 103 94 95 133 172 183 182 194 194 180 199 209 221 235 236 240 236 221 202 189 194 204 217 235 244 258 261 234 217 220 230 224 221 218 226
130 124 124 114 91 73 70 75 84 98 119 150 236 226 219 200 172 147 24 213 235 233 222 225 223 224 226 222 209 210 214 224 230 232 226 228 220 218 216 217 214 212 216
119 118 111 106 95 82 77 63 53 79 88 259 267 266 239 210 184 161 118 27 220 206 187 208 210 210 200 185 186 205 217 221 206 209 230 229 232 231 223 217 215 211 217